Regional Weather Roundup
Issued by NWS

Home | Current Version | Previous Version | Graphics & Text | Print | Product List | Glossary On
Versions: 1 2 3 4 5 6 7 8 9 10 11 12 13 14 15 16 17 18 19 20 21 22 23 24 25 26 27 28 29 30 31 32 33 34 35 36 37 38 39 40 41 42 43 44 45 46 47 48 49 50
000
ASUS43 KIND 231300
RWRIN

WEATHER ROUNDUP FOR INDIANA
NATIONAL WEATHER SERVICE INDIANAPOLIS IN
900 AM EDT WED AUG 23 2017

NOTE: "FAIR" INDICATES FEW OR NO CLOUDS BELOW 12,000 FEET WITH NO
SIGNIFICANT WEATHER AND/OR OBSTRUCTIONS TO VISIBILITY.

* - STATION DOES NOT REPORT WEATHER SUCH AS PRECIPITATION OR FOG.

+ - STATION NOT QUALITY CONTROLLED BY THE NATIONAL WEATHER SERVICE.
    USE DATA WITH CAUTION...ESPECIALLY DEWPOINT AND RELATIVE
    HUMIDITY OBSERVATIONS.

INZ001>003-010>013-019-020-231400-
NORTHWEST INDIANA

CITY           SKY/WX    TMP DP  RH WIND       PRES   REMARKS
GARY /AIRPORT/ SUNNY     64  52  63 W9        30.04S
MICHIGAN CITY+ SUNNY     68  54  60 NW10G16   30.02S
MONTICELLO +   SUNNY     59  56  91 W5        30.04R

$$

LMZ046-743>745-231400-
SOUTHERN LAKE MICHIGAN

STATION/POSITION TIME  TEMP    WIND        PRES    WAVE
                       AIR SEA DIR/SP/G            HT
                 (UTC) (F)     (DEG/KT/KT) (MB)    (FT)
BURNS HARBOR     1240   69     290/ 13/ 15 1017.3R
MICHIGAN CITY    1230   69     280/ 17/ 19   N/A
5NW MICH CITY    1250   69 73  300/ 14/ 19   N/A     5

$$

INZ004-005-014>016-021>024-231400-
NORTH CENTRAL INDIANA

CITY           SKY/WX    TMP DP  RH WIND       PRES   REMARKS
ELKHART        SUNNY     63  57  82 W7        30.01R
GOSHEN         SUNNY     62  56  80 W5        30.01R
PERU/GRISSOM   SUNNY     62  57  84 NW7       30.03R
SOUTH BEND     SUNNY     65  58  78 W6        30.02R

$$

INZ006>009-017-018-025>027-231400-
NORTHEAST INDIANA

CITY           SKY/WX    TMP DP  RH WIND       PRES   REMARKS
FORT WAYNE     MOSUNNY   63  57  81 W6        30.01S
KENDALLVILLE + SUNNY     61  58  88 W3        30.01S

$$

INZ028-029-035-036-043>045-051>053-231400-
WEST CENTRAL INDIANA

CITY           SKY/WX    TMP DP  RH WIND       PRES   REMARKS
LAFAYETTE      SUNNY     61  56  83 NW5       30.05R
TERRE HAUTE    SUNNY     62  55  77 N3        30.06R

$$

INZ030>032-037>040-046>048-054>057-064-065-231400-
CENTRAL INDIANA

CITY           SKY/WX    TMP DP  RH WIND       PRES   REMARKS
ANDERSON         N/A     61  61 100 MISG      30.03
COLUMBUS       SUNNY     61  59  94 CALM      30.05R
GREENWOOD *+   MOSUNNY  N/A N/A N/A CALM      30.05R
INDIANAPOLIS   PTSUNNY   64  56  75 NW7       30.04R
-EAGLE CREEK   PTSUNNY   65  55  70 NW9       30.04R
KOKOMO +       SUNNY     63  57  81 W7        30.04S
MT COMFORT *+  PTSUNNY   61  59  94 CALM      30.04R
SHELBYVILLE    SUNNY     65  60  84 NW5       30.04R

$$

INZ033-034-041-042-049-050-058-059-231400-
EAST CENTRAL INDIANA

CITY           SKY/WX    TMP DP  RH WIND       PRES   REMARKS
MUNCIE         SUNNY     65  59  81 W5        30.03R
RICHMOND +     SUNNY     63  59  88 NW5       30.04S

$$

INZ060-061-067>069-081>083-085>088-231400-
SOUTHWEST INDIANA

CITY           SKY/WX    TMP DP  RH WIND       PRES   REMARKS
EVANSVILLE     SUNNY     66  57  72 N7        30.05S
HUNTINGBURG +  SUNNY     64  59  83 N6        30.05R

$$

INZ062-063-066-070>080-084-089>092-231400-
SOUTH CENTRAL AND SOUTHEAST INDIANA

CITY           SKY/WX    TMP DP  RH WIND       PRES   REMARKS
BLOOMINGTON    PTSUNNY   63  57  81 N6        30.05R
MADISON *+     SUNNY     63  63 100 CALM      30.05S
SEYMOUR +      PTSUNNY   64  61  88 CALM      30.04R

$$





USA.gov is the U.S. government's official web portal to all federal, state and local government web resources and services.